Weather History for KHYA - September, 2011

Change the Weather History Date:

Sunday, September 25, 2011

  Actual Average Record
Temperature  
Mean Temperature 70 °F -  
Max Temperature 77 °F 66 °F 83 °F (1930)
Min Temperature 66 °F 49 °F 29 °F (1963)
Cooling Degree Days 6    
Growing Degree Days 20 (Base 50)    
Moisture  
Dew Point 67 °F    
Average Humidity 91    
Maximum Humidity 100    
Minimum Humidity 76    
Precipitation  
Precipitation 0.00 in - - ()
Sea Level Pressure  
Sea Level Pressure 30.05 in    
Wind  
Wind Speed 3 mph (West)    
Max Wind Speed 10 mph    
Max Gust Speed -    
Visibility 8 miles    
Events Fog    
Averages and records for this station are not official NWS values.
T = Trace of Precipitation, MM = Missing Value Source: NWS Daily Summary

Daily Weather History Graph

Daily Weather History Graph

Search for Another Location

Airport or City:

Trip Planner

Search our weather history database for the weather conditions in past years. The results will help you decide how hot, cold, wet, or windy it might be!

Date:

Astronomy

Sep. 25, 2011 Rise Set
Actual Time 6:31 AM EDT 6:33 PM EDT
Civil Twilight 6:03 AM EDT 7:01 PM EDT
Nautical Twilight 5:31 AM EDT 7:33 PM EDT
Astronomical Twilight 4:58 AM EDT 8:06 PM EDT
Moon 4:12 AM EDT (9/25) 5:13 PM EDT (9/25)
Length of Visible Light 12h 57m
Length of Day
12h 02m
Waning Crescent, 5% of the Moon is Illuminated
Sep 25
Waning Crescent
Sep 27
New
Oct 3
First Quarter
Oct 11
Full
Oct 19
Last Quarter

Hourly Weather History & Observations

Time (EDT) Temp. Dew Point Humidity Pressure Visibility Wind Dir Wind Speed Gust Speed Precip Events Conditions
12:56 AM 66.2 °F 66.2 °F 100% 30.04 in 10.0 mi Calm Calm - N/A   Clear
1:56 AM 66.9 °F 66.0 °F 97% 30.07 in 10.0 mi South 4.6 mph - N/A   Clear
2:09 AM 68.0 °F 66.2 °F 94% 30.06 in 10.0 mi SSW 5.8 mph - N/A   Partly Cloudy
2:35 AM 68.0 °F 66.2 °F 94% 30.06 in 10.0 mi SW 6.9 mph - N/A   Mostly Cloudy
2:56 AM 68.0 °F 66.9 °F 96% 30.06 in 10.0 mi SW 5.8 mph - N/A   Overcast
3:56 AM 68.0 °F 66.9 °F 96% 30.06 in 9.0 mi West 5.8 mph - N/A   Overcast
4:56 AM 69.1 °F 66.9 °F 93% 30.07 in 10.0 mi West 4.6 mph - N/A   Overcast
5:56 AM 69.1 °F 66.9 °F 93% 30.06 in 9.0 mi Calm Calm - N/A   Overcast
6:56 AM 68.0 °F 66.0 °F 93% 30.05 in 5.0 mi Calm Calm - N/A   Mostly Cloudy
7:56 AM 71.1 °F 68.0 °F 90% 30.07 in 10.0 mi Calm Calm - N/A   Clear
8:56 AM 72.0 °F 68.0 °F 87% 30.09 in 10.0 mi Calm Calm - N/A   Clear
9:56 AM 73.4 °F 68.0 °F 83% 30.08 in 10.0 mi Calm Calm - N/A   Clear
10:56 AM 75.9 °F 68.0 °F 76% 30.08 in 10.0 mi Calm Calm - N/A   Clear
11:56 AM 75.0 °F 68.0 °F 79% 30.06 in 10.0 mi North 10.4 mph - N/A   Clear
12:20 PM 73.4 °F 66.2 °F 78% 30.05 in 10.0 mi North 10.4 mph - N/A   Partly Cloudy
12:36 PM 71.6 °F 66.2 °F 83% 30.06 in 10.0 mi North 9.2 mph - N/A   Mostly Cloudy
12:56 PM 71.1 °F 68.0 °F 90% 30.06 in 2.0 mi NNW 8.1 mph - N/A   Overcast
1:07 PM 71.6 °F 68.0 °F 88% 30.06 in 9.0 mi North 6.9 mph - N/A   Overcast
1:56 PM 72.0 °F 68.0 °F 87% 30.05 in 10.0 mi NNE 4.6 mph - N/A   Overcast
2:37 PM 73.4 °F 69.8 °F 88% 30.04 in 10.0 mi Calm Calm - N/A   Mostly Cloudy
2:49 PM 73.4 °F 69.8 °F 88% 30.04 in 10.0 mi Calm Calm - N/A   Scattered Clouds
2:56 PM 73.0 °F 69.1 °F 87% 30.04 in 10.0 mi Calm Calm - N/A   Mostly Cloudy
3:06 PM 73.4 °F 69.8 °F 88% 30.04 in 10.0 mi Calm Calm - N/A   Scattered Clouds
3:56 PM 71.1 °F 66.9 °F 87% 30.04 in 10.0 mi South 4.6 mph - N/A   Partly Cloudy
4:56 PM 73.0 °F 69.1 °F 87% 30.03 in 10.0 mi Calm Calm - N/A   Scattered Clouds
5:56 PM 71.1 °F 68.0 °F 90% 30.04 in 10.0 mi Calm Calm - N/A   Overcast
6:56 PM 70.0 °F 68.0 °F 93% 30.03 in 10.0 mi SSW 3.5 mph - N/A   Overcast
7:22 PM 69.8 °F 66.2 °F 88% 30.02 in 8.0 mi SSW 4.6 mph - N/A   Overcast
7:56 PM 69.1 °F 66.9 °F 93% 30.03 in 7.0 mi SW 3.5 mph - N/A   Mostly Cloudy
8:56 PM 69.1 °F 66.9 °F 93% 30.03 in 8.0 mi Calm Calm - N/A   Scattered Clouds
9:56 PM 66.9 °F 66.0 °F 97% 30.02 in 5.0 mi Calm Calm - N/A   Clear
10:10 PM 68.0 °F 66.2 °F 94% 30.02 in 6.0 mi Calm Calm - N/A   Scattered Clouds
10:17 PM 68.0 °F 66.2 °F 94% 30.02 in 2.5 mi Calm Calm - N/A   Mostly Cloudy
10:24 PM 68.0 °F 66.2 °F 94% 30.03 in 0.8 mi Calm Calm - N/A   Mist
10:41 PM 68.0 °F 66.2 °F 94% 30.03 in 0.2 mi Calm Calm - N/A Fog Fog
10:56 PM 68.0 °F 66.2 °F 94% 30.02 in 0.2 mi Calm Calm - N/A Fog Fog
11:47 PM 66.2 °F 66.2 °F 100% 30.01 in 0.5 mi Calm Calm - N/A Fog Fog
11:56 PM 66.0 °F 66.0 °F 100% 30.02 in 0.5 mi Calm Calm - N/A Fog Fog